Wind_Speed
25 24 22 21 20 19 19 18 16 15 14 13 12 11 10 10 9 8 7 7 7 7 7 7 7 7 7 7 7 7 8 8 9 9 10 10 11 11 12 13 14 15 15
26 25 24 23 22 21 20 19 18 17 15 14 13 13 12 11 10 9 9 8 8 8 8 8 8 8 7 7 7 7 8 9 9 10 10 11 11 12 13 14 15 16 17
26 26 25 24 23 22 21 20 19 18 17 16 15 14 13 12 11 10 10 9 9 9 9 9 8 8 7 7 7 8 9 10 10 10 11 12 12 13 14 15 16 17 18
27 27 26 25 24 23 23 22 21 20 18 17 16 15 14 13 12 11 11 10 10 9 9 9 9 8 8 8 8 9 10 10 11 11 12 13 13 14 15 16 17 18 20
29 28 28 27 26 25 24 23 22 21 20 19 17 16 15 14 13 13 12 11 11 10 10 10 9 9 9 9 9 9 10 11 12 12 13 13 14 15 16 17 18 19 21
30 29 29 29 28 27 26 25 23 22 21 20 18 17 16 15 14 14 13 12 12 11 11 10 10 9 9 9 9 9 10 11 12 13 13 14 15 16 16 18 19 21 22
31 31 30 30 30 29 27 26 25 23 22 21 20 19 18 16 15 15 14 13 13 12 12 11 11 10 10 9 9 10 11 12 12 13 14 15 15 16 17 19 20 22 23
33 32 32 32 31 30 29 27 26 25 23 22 21 20 19 18 17 16 16 15 14 13 13 12 12 11 10 10 10 11 12 12 13 14 15 15 16 17 19 20 22 23 24
35 34 33 33 32 31 30 29 28 26 24 23 22 21 20 19 18 17 17 16 15 14 14 13 12 11 11 11 11 12 12 13 13 14 15 16 17 19 20 21 23 24 25
37 36 34 34 33 33 32 31 29 28 26 24 23 22 21 20 19 18 18 17 16 15 14 14 13 12 11 12 12 12 13 14 14 15 16 17 19 20 22 23 24 25 26
38 37 36 35 35 35 34 32 31 29 27 26 24 24 23 22 20 19 19 18 17 16 15 15 14 13 12 13 13 13 14 14 15 16 17 19 20 21 23 24 25 26 27
39 38 37 37 36 36 35 34 32 31 29 28 26 25 24 23 22 21 20 19 18 17 16 16 15 14 13 13 14 14 15 16 17 18 19 20 21 22 24 25 26 27 28
41 40 39 38 38 37 37 35 34 32 31 29 27 26 25 24 23 22 21 20 19 18 17 17 16 15 15 15 15 15 16 17 18 19 20 21 22 24 25 26 27 28 29
41 41 40 39 39 38 38 37 35 33 31 30 29 28 27 25 24 23 22 21 21 20 19 18 17 17 16 16 17 17 17 18 19 20 21 22 23 25 26 27 28 30 31
42 42 41 40 39 39 39 38 37 35 33 31 30 29 28 27 26 24 23 23 22 21 20 19 19 18 17 17 18 18 19 20 20 21 22 24 25 26 27 28 29 31 32
43 42 42 40 40 40 39 39 37 36 34 33 31 30 29 28 27 26 25 24 23 22 21 21 20 19 19 18 19 20 20 21 22 23 24 25 26 27 28 29 31 32 33
43 42 42 41 41 41 40 39 38 37 35 34 33 32 31 30 29 28 26 25 24 24 23 22 21 20 20 20 20 21 21 22 23 24 25 26 27 29 30 31 32 33 34
44 43 42 42 42 41 41 40 39 38 36 35 34 33 32 31 30 29 28 27 26 25 24 24 23 22 22 21 21 22 22 23 24 25 26 28 29 30 31 32 33 34 35
45 43 43 42 42 42 42 41 40 39 37 36 35 34 33 33 32 30 29 28 27 26 26 25 24 23 23 23 22 22 23 24 25 26 28 29 30 31 32 33 35 35 36
46 45 44 43 43 43 42 42 41 40 38 37 36 35 34 34 33 32 30 29 29 28 27 26 25 25 24 24 24 24 24 25 27 28 29 30 31 32 33 34 36 36 37
48 46 45 44 43 43 42 42 41 40 39 38 37 36 35 35 34 33 32 31 30 29 28 27 27 26 26 25 25 25 26 27 28 29 30 31 33 34 35 36 36 37 38
49 47 46 44 43 42 41 41 41 41 41 40 39 38 36 35 34 34 33 32 31 30 30 29 28 28 27 27 26 27 28 28 29 31 32 33 34 35 36 37 37 38 39
50 48 46 45 43 43 42 42 42 42 41 40 38 37 36 36 35 34 33 33 32 31 31 30 30 29 28 28 28 28 29 30 31 32 33 34 35 36 37 37 38 39 40
51 48 46 45 44 43 43 43 42 41 39 38 38 38 37 36 36 35 34 33 33 32 32 31 31 30 30 30 30 30 31 31 32 33 34 35 36 37 37 38 39 40 41
52 50 48 46 45 44 44 43 42 41 40 40 40 38 37 37 36 35 35 35 34 33 33 32 32 31 31 31 31 31 32 33 34 34 35 36 37 38 38 39 40 41 42
53 52 50 48 46 45 44 44 43 41 41 40 39 38 38 37 36 36 36 35 35 34 34 33 33 33 32 32 32 33 33 34 35 36 36 37 37 39 39 40 41 42 42
Wind_Direction
219 218 219 219 221 222 221 222 223 224 225 227 231 236 241 247 252 253 254 259 264 271 281 288 294 297 302 307 312 317 322 323 323 326 327 328 328 329 329 329 330 329 328
219 219 220 220 222 223 223 224 225 226 226 228 232 237 243 247 251 251 254 259 262 271 279 286 292 293 299 303 307 313 317 318 320 323 323 323 325 327 328 329 329 328 326
220 220 221 222 222 223 224 224 225 226 226 229 234 238 243 246 249 251 253 256 260 270 278 284 289 290 295 298 303 308 311 314 318 320 320 323 325 327 327 328 327 326 324
221 221 222 223 223 224 224 224 225 226 226 229 234 238 240 242 246 248 249 252 259 266 275 280 283 284 288 292 299 304 308 313 316 318 320 322 324 325 325 326 325 324 324
221 222 222 223 223 224 224 225 225 225 226 229 233 236 238 240 243 244 246 251 257 264 271 275 277 279 283 290 296 301 306 311 315 319 321 322 324 325 326 326 326 326 325
223 223 223 223 223 223 224 225 226 226 226 229 232 234 236 239 240 242 245 251 256 262 267 272 273 276 282 288 293 298 305 310 314 317 320 321 322 324 326 326 327 326 326
223 224 224 223 224 223 224 225 226 227 227 230 231 232 236 238 239 242 246 250 255 259 264 268 269 274 279 284 289 296 303 309 312 315 319 320 322 323 325 325 325 326 326
223 224 225 224 224 224 224 225 226 227 229 230 230 231 234 237 239 242 245 249 252 256 261 264 268 271 275 280 287 294 302 308 311 314 318 320 322 324 324 324 325 325 325
224 224 225 225 225 224 225 225 226 227 229 230 230 231 234 236 238 241 245 247 250 254 258 262 265 267 273 279 286 293 300 307 311 314 317 319 322 324 325 325 325 325 325
225 224 225 225 225 225 225 225 226 227 228 229 229 230 233 236 237 240 243 245 249 253 255 258 262 265 272 279 286 292 299 305 309 313 316 318 320 322 324 325 325 325 325
226 225 225 226 226 225 225 226 226 227 228 229 229 231 233 236 238 240 241 243 247 251 252 256 259 265 272 279 285 292 299 304 308 313 316 318 320 322 324 324 325 325 326
227 227 227 227 227 226 225 225 225 226 228 229 230 231 233 236 238 240 240 242 246 249 251 254 258 264 271 278 284 291 298 302 307 312 315 318 320 321 323 323 325 325 325
225 226 226 227 227 227 225 225 225 227 228 229 230 231 233 236 238 241 241 242 245 247 250 253 258 264 270 276 283 289 295 301 305 310 314 317 320 321 322 322 323 324 324
224 225 226 227 227 227 225 224 225 226 228 229 230 231 233 236 238 240 241 243 244 247 250 253 258 264 269 275 281 288 294 299 304 308 312 316 319 321 321 321 322 323 323
222 223 225 226 226 226 225 224 225 226 228 228 230 231 233 236 237 239 241 243 244 246 249 252 257 263 267 273 280 288 293 298 302 306 310 314 317 318 320 320 321 321 322
222 223 224 226 226 225 224 224 225 227 227 228 230 232 234 236 238 240 241 243 245 247 249 252 257 262 267 273 280 286 292 296 300 305 309 312 314 316 318 319 320 320 321
222 223 224 225 225 224 223 224 225 226 227 229 230 232 234 237 238 240 241 243 245 247 250 252 257 262 267 273 279 285 291 295 299 303 307 310 312 315 316 317 318 319 319
222 222 223 223 223 224 224 224 224 225 227 229 230 232 234 237 238 239 240 243 245 246 249 252 257 262 267 272 278 284 290 295 299 303 306 309 310 312 314 315 317 317 318
222 222 222 222 223 223 224 224 224 225 227 229 231 233 236 237 237 238 240 242 244 246 248 252 257 262 266 272 277 283 289 294 299 302 305 308 309 310 312 314 315 316 316
222 222 221 221 222 223 224 224 225 226 228 230 232 234 236 236 237 238 240 242 243 246 249 252 256 261 266 271 276 282 288 293 297 301 304 307 308 309 311 312 313 314 315
221 221 221 221 222 223 224 225 226 227 229 231 232 233 235 236 237 239 241 242 244 247 249 253 256 260 265 270 276 282 287 291 295 299 303 305 307 308 309 311 312 313 313
221 221 222 222 222 223 224 225 226 226 227 229 231 233 234 236 237 239 240 241 244 247 250 253 257 260 265 270 276 282 287 291 295 298 301 304 306 307 308 310 310 311 312
221 222 222 223 223 223 224 225 226 226 227 229 232 234 234 235 236 238 240 241 244 247 250 253 256 260 265 270 275 281 287 291 294 297 300 302 304 305 307 308 309 310 310
221 222 223 223 223 223 224 225 227 228 228 230 232 233 233 235 236 238 239 241 244 247 250 253 257 261 265 270 275 281 286 290 293 296 298 300 302 303 305 306 308 308 308
221 222 222 222 223 223 224 225 227 228 228 229 230 232 233 235 236 238 239 242 245 247 251 255 258 261 266 270 275 281 285 289 292 294 296 299 301 302 304 305 306 307 307
221 221 222 222 223 224 225 225 226 227 229 230 231 233 234 235 237 238 240 242 245 249 252 255 258 262 266 271 276 281 284 288 290 293 296 298 299 301 302 304 305 306 306
Height
5858 5861 5863 5865 5867 5869 5871 5873 5875 5876 5878 5879 5880 5881 5882 5883 5884 5885 5885 5885 5885 5885 5885 5884 5884 5884 5883 5883 5882 5882 5881 5880 5879 5878 5877 5876 5874 5873 5872 5870 5869 5867 5865
5855 5858 5860 5862 5865 5867 5869 5871 5873 5874 5876 5877 5879 5880 5881 5882 5883 5883 5884 5884 5884 5884 5884 5883 5883 5883 5882 5882 5881 5881 5880 5879 5878 5877 5876 5874 5873 5871 5870 5868 5867 5865 5864
5852 5854 5856 5859 5861 5864 5866 5868 5870 5872 5874 5875 5877 5878 5879 5880 5881 5882 5882 5882 5883 5882 5882 5882 5882 5881 5881 5881 5881 5880 5879 5877 5876 5875 5874 5873 5871 5870 5868 5867 5865 5863 5861
5847 5850 5853 5856 5858 5861 5863 5865 5868 5869 5871 5873 5875 5876 5877 5878 5879 5880 5881 5881 5881 5881 5881 5881 5880 5880 5880 5880 5879 5878 5877 5876 5875 5874 5873 5871 5870 5868 5866 5865 5863 5861 5859
5843 5846 5849 5852 5854 5857 5860 5862 5865 5867 5869 5871 5872 5874 5875 5876 5877 5878 5879 5879 5879 5879 5879 5879 5879 5879 5879 5878 5878 5877 5876 5875 5873 5872 5871 5869 5868 5866 5864 5862 5860 5858 5856
5838 5841 5844 5847 5850 5853 5856 5859 5861 5863 5866 5868 5870 5871 5873 5874 5875 5876 5877 5877 5878 5878 5878 5878 5878 5877 5877 5877 5876 5875 5874 5873 5872 5870 5869 5867 5866 5864 5862 5860 5858 5855 5853
5832 5836 5839 5843 5846 5849 5852 5855 5857 5860 5862 5865 5867 5868 5870 5871 5873 5874 5875 5875 5875 5876 5876 5876 5876 5875 5875 5875 5874 5874 5873 5871 5870 5868 5867 5865 5864 5862 5860 5857 5855 5852 5850
5827 5830 5834 5837 5841 5844 5848 5851 5854 5856 5859 5861 5863 5865 5867 5869 5870 5871 5872 5873 5873 5873 5874 5874 5874 5873 5873 5873 5872 5872 5871 5869 5868 5866 5865 5863 5861 5859 5857 5855 5852 5849 5846
5820 5825 5828 5832 5836 5839 5843 5846 5849 5852 5855 5858 5860 5862 5864 5865 5867 5868 5869 5870 5870 5871 5871 5871 5871 5871 5871 5871 5870 5869 5868 5867 5866 5864 5862 5861 5859 5856 5854 5852 5849 5846 5843
5814 5819 5823 5827 5830 5834 5838 5842 5845 5848 5851 5854 5856 5858 5860 5862 5864 5865 5866 5867 5868 5868 5868 5869 5869 5869 5869 5868 5868 5867 5866 5865 5863 5862 5860 5858 5856 5853 5851 5848 5846 5843 5839
5808 5813 5817 5821 5825 5829 5833 5837 5840 5843 5847 5849 5852 5854 5857 5858 5860 5861 5863 5864 5864 5865 5865 5866 5866 5866 5866 5866 5865 5864 5863 5862 5861 5859 5857 5855 5853 5850 5848 5845 5842 5839 5836
5802 5806 5811 5815 5819 5823 5827 5831 5835 5839 5842 5845 5848 5850 5853 5854 5856 5858 5859 5860 5861 5862 5862 5863 5863 5863 5863 5863 5862 5861 5860 5859 5858 5856 5854 5852 5849 5847 5844 5841 5838 5835 5832
5794 5799 5804 5808 5813 5817 5821 5826 5830 5833 5837 5840 5843 5846 5848 5850 5852 5854 5855 5856 5857 5858 5859 5859 5860 5860 5860 5860 5859 5858 5857 5856 5854 5853 5851 5848 5846 5843 5840 5837 5834 5831 5827
5787 5792 5796 5801 5806 5810 5815 5820 5824 5828 5832 5835 5838 5841 5843 5846 5847 5849 5851 5852 5853 5854 5855 5856 5856 5856 5856 5856 5855 5855 5854 5852 5851 5849 5847 5845 5842 5839 5836 5833 5830 5826 5823
5779 5784 5789 5794 5799 5804 5808 5813 5818 5822 5826 5830 5833 5836 5838 5841 5843 5845 5846 5848 5849 5850 5851 5852 5852 5853 5853 5852 5852 5851 5850 5848 5847 5845 5843 5840 5838 5835 5832 5829 5825 5822 5818
5772 5777 5782 5786 5792 5797 5802 5807 5812 5816 5820 5824 5827 5830 5833 5835 5838 5840 5842 5843 5845 5846 5847 5848 5848 5849 5849 5848 5848 5847 5846 5844 5843 5841 5839 5836 5834 5831 5827 5824 5820 5817 5813
5764 5769 5774 5779 5784 5789 5795 5800 5805 5810 5814 5818 5822 5824 5827 5830 5832 5835 5837 5839 5840 5841 5842 5843 5844 5844 5844 5844 5843 5842 5841 5840 5838 5836 5834 5832 5829 5826 5822 5819 5815 5811 5807
5755 5761 5767 5772 5777 5783 5788 5793 5798 5803 5808 5812 5815 5818 5821 5824 5827 5829 5831 5833 5835 5836 5837 5838 5839 5840 5840 5839 5839 5838 5836 5835 5833 5831 5829 5827 5824 5820 5817 5813 5810 5806 5801
5747 5753 5759 5765 5770 5775 5781 5786 5791 5796 5801 5805 5809 5812 5815 5818 5821 5823 5825 5827 5829 5831 5832 5833 5834 5835 5835 5835 5834 5833 5832 5830 5828 5826 5824 5821 5818 5815 5811 5808 5804 5800 5795
5738 5745 5751 5757 5762 5768 5773 5778 5784 5790 5794 5799 5803 5806 5809 5812 5815 5817 5820 5822 5824 5826 5827 5828 5829 5829 5830 5830 5829 5828 5827 5825 5823 5821 5818 5815 5812 5809 5805 5802 5798 5793 5789
5729 5736 5743 5749 5755 5760 5766 5772 5778 5783 5788 5792 5796 5799 5802 5805 5808 5811 5814 5816 5818 5820 5821 5823 5823 5824 5824 5824 5824 5822 5821 5820 5818 5815 5813 5810 5807 5803 5799 5795 5791 5787 5783
5721 5728 5735 5741 5747 5753 5759 5765 5770 5775 5779 5784 5788 5792 5796 5799 5802 5805 5807 5810 5812 5814 5816 5817 5817 5818 5818 5818 5818 5817 5815 5814 5812 5809 5807 5804 5800 5797 5793 5789 5785 5780 5776
5712 5720 5727 5734 5740 5746 5751 5756 5761 5766 5771 5777 5782 5786 5789 5792 5795 5798 5801 5803 5806 5808 5809 5810 5811 5812 5812 5812 5812 5811 5809 5808 5806 5803 5800 5797 5794 5790 5786 5782 5778 5773 5769
5705 5712 5719 5726 5732 5737 5743 5748 5754 5760 5766 5771 5774 5778 5781 5785 5788 5791 5794 5797 5799 5801 5803 5804 5805 5805 5806 5805 5805 5804 5803 5801 5799 5797 5794 5791 5787 5783 5779 5775 5771 5766 5761
5695 5702 5710 5717 5723 5729 5735 5741 5746 5752 5757 5761 5765 5770 5774 5778 5781 5784 5787 5790 5792 5794 5796 5797 5798 5799 5799 5799 5798 5797 5796 5794 5792 5790 5787 5784 5780 5776 5772 5768 5763 5759 5754
5684 5692 5700 5707 5714 5720 5726 5732 5738 5744 5749 5753 5758 5763 5767 5771 5774 5777 5780 5783 5785 5787 5789 5790 5791 5792 5792 5792 5791 5790 5789 5787 5785 5783 5780 5776 5773 5769 5765 5760 5756 5751 5746